Voltar ao catálogo

USA 486

AtivoMilitarVLEO
NORAD 62757·PAYLOAD·🇺🇸 United States

Lançado Jan 21, 2025 de Cape Canaveral Space Force Station

Loading…

Próximas Passagens (próximas 24 horas)

TLE

AtualizadoSource: Space-Track

Época: Sep 14, 2026, 11:39 UTC

1 62757U 25014Y   26257.48600317  .00197556  00000-0  10667-2 0  9995
2 62757  43.0015 287.9847 0001440 321.0894  38.9873 15.78780612 94874

Acompanhe USA 486 em tempo real com AllMySat

Download on the App Store